Simultaneous Nadir Overpasses (SNOs) Predictions

Prediction of SNOs between NOAA-19 and NPP Satellite Orbit:

Table of predicted SNOs for the next 14.0 days since TLE Epoch: 11/9/2012
Index Date (NOAA-19) Time (NOAA-19) NOAA-19 Lat,Lon Date (NPP) Time (NPP) NPP Lat,Lon Distance(km) Time Diff (sec)
1 11/15/2012 09:50:09 -80.80, 162.33 11/15/2012 09:51:15 -80.81, 162.32 0.16 66
2 11/15/2012 10:41:05 80.76, -29.54 11/15/2012 10:41:58 80.77, -29.70 3.03 53
3 11/15/2012 11:32:12 -80.77, 137.49 11/15/2012 11:32:43 -80.77, 137.62 2.25 31
4 11/15/2012 12:23:08 80.73, -54.37 11/15/2012 12:23:26 80.73, -54.41 0.76 18
5 11/15/2012 13:14:12 -80.68, 113.70 11/15/2012 13:14:09 -80.69, 113.59 2.01 3
6 11/15/2012 14:05:11 80.69, -79.21 11/15/2012 14:04:54 80.69, -79.13 1.52 17
7 11/15/2012 14:56:15
